Hourly Weather Bolshie Podelki

Today, 20 June, Sunday

Time Temperature Precipitation Wind Pressure Humidity
00:00 +17°C° 0 mm 2 mps 750 mmHg 88%
01:00 +17°C° 0 mm 2 mps 750 mmHg 89%
02:00 +17°C° 0 mm 2 mps 750 mmHg 91%
03:00 +18°C° 0 mm 1 mps 750 mmHg 90%
04:00 +19°C° 0 mm 1 mps 750 mmHg 89%
05:00 +19°C° 0 mm 1 mps 750 mmHg 88%
06:00 +21°C° 0 mm 1 mps 750 mmHg 82%
07:00 +23°C° 0 mm 1 mps 750 mmHg 76%
08:00 +25°C° 0 mm 1 mps 750 mmHg 70%
09:00 +26°C° 0 mm 2 mps 750 mmHg 67%
10:00 +27°C° 0 mm 2 mps 750 mmHg 63%
11:00 +28°C° 0 mm 2 mps 750 mmHg 59%
12:00 +29°C° 0 mm 2 mps 749 mmHg 57%
13:00 +29°C° 0 mm 2 mps 749 mmHg 55%
14:00 +30°C° 0 mm 2 mps 749 mmHg 53%
15:00 +29°C° 0 mm 2 mps 749 mmHg 55%
16:00 +29°C° 0 mm 2 mps 749 mmHg 58%
17:00 +29°C° 0 mm 1 mps 748 mmHg 60%
18:00 +27°C° 0 mm 2 mps 748 mmHg 66%
19:00 +25°C° 0 mm 2 mps 748 mmHg 72%
20:00 +23°C° 0 mm 2 mps 748 mmHg 78%
21:00 +21°C° 0 mm 2 mps 748 mmHg 80%
22:00 +20°C° 0 mm 2 mps 748 mmHg 83%
23:00 +19°C° 0 mm 2 mps 748 mmHg 85%

Tomorrow, 21 June, Monday

Time Temperature Precipitation Wind Pressure Humidity
00:00 +19°C° 0 mm 2 mps 748 mmHg 86%
01:00 +18°C° 0 mm 2 mps 748 mmHg 87%
02:00 +18°C° 0 mm 2 mps 749 mmHg 88%
03:00 +18°C° 0 mm 2 mps 749 mmHg 87%
04:00 +20°C° 0 mm 1 mps 749 mmHg 86%
05:00 +20°C° 0 mm 1 mps 749 mmHg 86%
06:00 +21°C° 0 mm 2 mps 749 mmHg 80%
07:00 +23°C° 0 mm 2 mps 749 mmHg 75%
08:00 +25°C° 0 mm 2 mps 749 mmHg 70%
09:00 +26°C° 0 mm 2 mps 749 mmHg 65%
10:00 +27°C° 0 mm 3 mps 749 mmHg 60%
11:00 +28°C° 0 mm 3 mps 749 mmHg 55%
12:00 +28°C° 0 mm 3 mps 749 mmHg 53%
13:00 +29°C° 0 mm 2 mps 748 mmHg 50%
14:00 +29°C° 0 mm 2 mps 748 mmHg 48%
15:00 +29°C° 0 mm 2 mps 748 mmHg 52%
16:00 +29°C° 0 mm 2 mps 748 mmHg 56%
17:00 +29°C° 0 mm 1 mps 748 mmHg 60%
18:00 +27°C° 0 mm 2 mps 748 mmHg 66%
19:00 +25°C° 0 mm 2 mps 748 mmHg 71%
20:00 +23°C° 0 mm 2 mps 748 mmHg 77%
21:00 +21°C° 0 mm 2 mps 748 mmHg 81%
22:00 +20°C° 0 mm 2 mps 748 mmHg 86%
23:00 +19°C° 0 mm 2 mps 748 mmHg 90%

Day after tomorrow, 22 June, Tuesday

Time Temperature Precipitation Wind Pressure Humidity
00:00 +19°C° 0 mm 2 mps 748 mmHg 92%
01:00 +19°C° 0 mm 2 mps 748 mmHg 93%
02:00 +19°C° 0 mm 2 mps 748 mmHg 95%
03:00 +19°C° 0 mm 2 mps 748 mmHg 94%
04:00 +20°C° 0 mm 2 mps 748 mmHg 93%
05:00 +20°C° 0 mm 2 mps 748 mmHg 92%
06:00 +23°C° 0 mm 2 mps 748 mmHg 85%
07:00 +25°C° 0 mm 3 mps 748 mmHg 78%
08:00 +26°C° 0 mm 3 mps 748 mmHg 70%
09:00 +28°C° 0 mm 3 mps 748 mmHg 64%
10:00 +29°C° 0 mm 4 mps 748 mmHg 59%
11:00 +30°C° 0 mm 4 mps 748 mmHg 53%
12:00 +32°C° 0 mm 4 mps 748 mmHg 51%
13:00 +31°C° 0 mm 3 mps 748 mmHg 49%
14:00 +33°C° 0 mm 3 mps 748 mmHg 46%
15:00 +33°C° 0 mm 3 mps 748 mmHg 50%
16:00 +31°C° 0 mm 3 mps 748 mmHg 54%
17:00 +31°C° 0 mm 3 mps 747 mmHg 58%
18:00 +29°C° 0 mm 3 mps 747 mmHg 66%
19:00 +27°C° 0 mm 3 mps 747 mmHg 73%
20:00 +25°C° 0 mm 3 mps 747 mmHg 81%
21:00 +24°C° 0 mm 3 mps 748 mmHg 85%
22:00 +22°C° 0 mm 3 mps 748 mmHg 88%
23:00 +21°C° 0 mm 3 mps 748 mmHg 92%

23 June, Wednesday

Time Temperature Precipitation Wind Pressure Humidity
00:00 +21°C° 0 mm 2 mps 748 mmHg 93%
01:00 +21°C° 0 mm 2 mps 748 mmHg 94%
02:00 +20°C° 0 mm 2 mps 748 mmHg 96%
03:00 +21°C° 0 mm 2 mps 748 mmHg 95%
04:00 +21°C° 0 mm 2 mps 748 mmHg 94%
05:00 +23°C° 0 mm 2 mps 748 mmHg 93%
06:00 +24°C° 0 mm 2 mps 748 mmHg 86%
07:00 +26°C° 0 mm 2 mps 748 mmHg 79%
08:00 +28°C° 0 mm 3 mps 749 mmHg 72%
09:00 +29°C° 0 mm 3 mps 749 mmHg 67%
10:00 +30°C° 0 mm 3 mps 749 mmHg 62%
11:00 +31°C° 0 mm 3 mps 749 mmHg 56%
12:00 +33°C° 0 mm 3 mps 749 mmHg 54%
13:00 +33°C° 0 mm 3 mps 748 mmHg 51%
14:00 +34°C° 0 mm 3 mps 748 mmHg 48%
15:00 +34°C° 0 mm 3 mps 748 mmHg 51%
16:00 +32°C° 0 mm 2 mps 748 mmHg 54%
17:00 +32°C° 0 mm 2 mps 748 mmHg 58%
18:00 +30°C° 0 mm 2 mps 748 mmHg 64%
19:00 +28°C° 0 mm 2 mps 748 mmHg 70%
20:00 +26°C° 0 mm 2 mps 748 mmHg 76%
21:00 +25°C° 0.1 mm 2 mps 748 mmHg 77%
22:00 +24°C° 0.1 mm 2 mps 748 mmHg 79%
23:00 +23°C° 0.1 mm 2 mps 748 mmHg 81%

24 June, Thursday

Time Temperature Precipitation Wind Pressure Humidity
00:00 +21°C° 0 mm 2 mps 748 mmHg 82%
01:00 +21°C° 0 mm 2 mps 748 mmHg 84%
02:00 +20°C° 0 mm 2 mps 748 mmHg 86%
03:00 +21°C° 0 mm 2 mps 748 mmHg 86%
04:00 +21°C° 0 mm 2 mps 748 mmHg 86%
05:00 +23°C° 0 mm 2 mps 749 mmHg 86%
06:00 +25°C° 0 mm 2 mps 749 mmHg 79%
07:00 +26°C° 0 mm 2 mps 749 mmHg 73%
08:00 +28°C° 0 mm 2 mps 749 mmHg 66%
09:00 +29°C° 0 mm 2 mps 749 mmHg 62%
10:00 +31°C° 0 mm 2 mps 749 mmHg 57%
11:00 +32°C° 0 mm 2 mps 749 mmHg 53%
12:00 +32°C° 0 mm 2 mps 748 mmHg 51%
13:00 +34°C° 0 mm 2 mps 748 mmHg 49%
14:00 +34°C° 0 mm 2 mps 748 mmHg 47%
15:00 +34°C° 0 mm 2 mps 748 mmHg 49%
16:00 +33°C° 0 mm 1 mps 748 mmHg 52%
17:00 +33°C° 0 mm 1 mps 748 mmHg 54%
18:00 +31°C° 0 mm 1 mps 747 mmHg 60%
19:00 +29°C° 0 mm 1 mps 747 mmHg 66%
20:00 +27°C° 0 mm 1 mps 747 mmHg 72%
21:00 +26°C° 0 mm 1 mps 747 mmHg 74%
22:00 +25°C° 0 mm 1 mps 747 mmHg 76%
23:00 +24°C° 0 mm 1 mps 748 mmHg 78%

25 June, Friday

Time Temperature Precipitation Wind Pressure Humidity
00:00 +24°C° 0 mm 1 mps 748 mmHg 80%
01:00 +23°C° 0 mm 1 mps 747 mmHg 81%
02:00 +23°C° 0 mm 1 mps 747 mmHg 83%
03:00 +23°C° 0.1 mm 1 mps 747 mmHg 83%
04:00 +24°C° 0.1 mm 1 mps 747 mmHg 84%
05:00 +24°C° 0.1 mm 1 mps 747 mmHg 84%
06:00 +26°C° 0 mm 2 mps 747 mmHg 78%
07:00 +27°C° 0 mm 2 mps 747 mmHg 72%
08:00 +29°C° 0 mm 2 mps 748 mmHg 66%
09:00 +30°C° 0 mm 2 mps 748 mmHg 61%
10:00 +31°C° 0 mm 2 mps 748 mmHg 56%
11:00 +34°C° 0 mm 3 mps 747 mmHg 51%
12:00 +34°C° 0 mm 2 mps 747 mmHg 49%
13:00 +34°C° 0 mm 2 mps 747 mmHg 46%
14:00 +35°C° 0 mm 2 mps 747 mmHg 44%
15:00 +34°C° 0 mm 2 mps 746 mmHg 48%
16:00 +33°C° 0 mm 1 mps 746 mmHg 51%
17:00 +32°C° 0 mm 1 mps 745 mmHg 54%
18:00 +29°C° 1.1 mm 3 mps 746 mmHg 68%
19:00 +25°C° 1.1 mm 5 mps 746 mmHg 81%
20:00 +20°C° 1.1 mm 7 mps 747 mmHg 94%
21:00 +20°C° 0.1 mm 5 mps 746 mmHg 93%
22:00 +20°C° 0.1 mm 3 mps 746 mmHg 92%
23:00 +20°C° 0.1 mm 2 mps 746 mmHg 90%
Show more